Terminal Aerodrome Forecast
Issued by NWS

Home | Current Version | Previous Version | Text Only | Print | Product List | Glossary On
Versions: 1 2 3 4 5 6 7 8 9 10 11 12 13
000
FTUS45 KRIW 252300
TAFJAC
TAF
KJAC 252324Z 2600/2624 21016G22KT P6SM FEW100
     FM260130 19009KT P6SM SKC
     FM260600 VRB05KT P6SM SKC
     FM261800 19009KT P6SM SKC
      AMD LTD TO CLD VIS AND WIND=

USA.gov is the U.S. government's official web portal to all federal, state and local government web resources and services.